Location: East Irvine
(33.6759°N, 117.7598°W)
Time: 22:27:19
(UTC+00:00)

Cosmos 1464 Rocket - Pass Details

Date: 15 November 2025
Orbit: 950 x 1001 km, 82.9° (Epoch: 13 December)

Event Time Altitude Azimuth Distance (km) Brightness Sun altitude
Rises 02:23:21 0° 187° (S) 3,701 7.2 -19.8°
Reaches altitude 10° 02:25:53 10° 188° (S) 2,751 6.6 -20.4°
Maximum altitude 02:32:12 81° 275° (W) 1,004 4.1 -21.7°
Drops below altitude 10° 02:38:30 10° 4° (N) 2,735 6.2 -23.0°
Sets 02:41:01 0° 5° (N) 3,678 6.9 -23.5°
